{"data":{"norad_id":53190,"epoch":"2026-05-25T03:08:54.583584Z","epoch_age_seconds":73999,"freshness":"FRESH","line1":"1 53190U 22084B   26145.13118731 -.00002699  00000+0 -18318-3 0  9998","line2":"2 53190  97.4533 206.1898 0000291 183.2515 176.8711 15.05629721211555","mean_motion":15.05629721,"eccentricity":2.91e-5,"inclination_deg":97.4533,"raan_deg":206.1898,"arg_perigee_deg":183.2515,"mean_anomaly_deg":176.8711,"bstar":-0.00018318,"rev_number":21155,"period_min":95.641045066751,"perigee_km":549.37176218786,"apogee_km":549.77495493073,"semimajor_km":6927.7103585593,"source":"CELESTRAK","updated_at":"2026-05-25T13:38:17.327445Z"}}